Location: Chiroubles
(46.1812°N, 4.6660°E)
Time: 03:42:01
(UTC+00:00)

Cosmos 2123 Rocket - Pass Details

Date: 15 August 2020
Orbit: 962 x 991 km, 82.9° (Epoch: 25 September)

Event Time Altitude Azimuth Distance (km) Brightness Sun altitude
Rises 19:34:02 0° 353° (N) 3,673 7.6 -7.8°
Reaches altitude 10° 19:36:34 10° 357° (N) 2,726 6.8 -8.2°
Maximum altitude 19:42:46 63° 78° (ENE) 1,082 4.1 -9.1°
Drops below altitude 10° 19:48:58 10° 160° (SSE) 2,727 5.9 -10.0°
Enters shadow 19:50:32 - 162° (SSE) 3,310 6.3 -10.2°
